Weather in Toysi-Parazusi

Russia / Chuvash Republic     55°21′06″N   47°10′05″E
temp.,
°C
wind,
m/s
gust,
m/s
humid.,
%
clouds,
%
prec.,
mm/h
press.,
hPa
HPBL,
m
9 may, sun
sun900:00+10se3886100 0.0 1011124
03:00+10sse368760 0.0 101199
06:00+12sse4118185 0.0 1010298
09:00+15sse51370100 0.0 1010487
12:00+18s71363100 0.0 10101157
15:00+19se4964100 0.1 10101126
18:00+18sse61269100 0.5 1010642
21:00+15sse4108095 0.9 1012260
10 may, mon
mon1000:00+12wsw3690100 0.0 1013106
03:00+11wnw2391100 0.0 101680
06:00+12n2488100 0.2 1017148
09:00+15ne3474100 0.2 1018461
12:00+19nne3363100 0.0 1019895
15:00+19n6668100 0.1 1021811
18:00+15n61088100 1.4 1022391
21:00+12n5119195 3.3 1024297
11 may, tue
tue1100:00+10nne4109779 0.0 1024248
03:00+9nne41097100 0.0 1025236
06:00+12ne389494 0.0 1025213
09:00+17ene4676100 0.0 1026488
12:00+20e4559100 0.0 1027799
15:00+22e4551100 0.0 10261260
18:00+19e256750 0.0 1027126
21:00+15e347190 0.0 102746
12 may, wed
wed1200:00+14e237174 0.0 102844
03:00+14ese257068 0.0 102892
06:00+15e267746 0.0 1028150
09:00+20ese4656100 0.0 1028585
12:00+22ese5746100 0.0 10281546
15:00+23se574597 0.0 10272060
18:00+20se376022 0.0 1027218
21:00+16e337098 0.0 102742
13 may, thu
thu1300:00+15ese237499 0.0 102752
03:00+13ese357358 0.0 102871
06:00+15ese397186 0.0 1028247
09:00+20se59495 0.0 1027723
12:00+22se67415 0.0 10271215
15:00+23se6842100 0.0 10261417
18:00+20se4960100 0.0 1026326
21:00+16se4116769 0.0 1026187